DW9151 Weather Reports


Display with metric or nautical units.
time (UTC)temp
F
wind
direction
speed
MPH
gust
MPH
rain 1hr
in
rain 24hr
in
rain mn
in
humidity
%
barometer
mb
20260510074136 44 15 3.0 7.0 0.00 0.00 0.00 82 1015.7
20260510073634 44 14 2.0 6.0 0.00 0.00 0.00 82 1015.8
20260510072633 44 15 2.0 6.0 0.00 0.00 0.00 82 1015.8
20260510072134 44 14 3.0 7.0 0.00 0.00 0.00 84 1015.7
20260510071633 44 15 4.0 9.0 0.00 0.00 0.00 85 1015.7
20260510071134 44 14 4.0 8.0 0.00 0.00 0.00 86 1015.7
20260510070634 45 13 5.0 9.0 0.00 0.00 0.00 87 1015.7
20260510070134 46 13 5.0 7.0 0.00 0.00 0.00 87 1015.7
20260510065633 47 15 3.0 6.0 0.00 0.00 0.00 88 1015.6
20260510065134 47 15 3.0 5.0 0.00 0.00 0.00 88 1015.7
20260510064633 48 16 3.0 6.0 0.00 0.00 0.00 87 1015.7
20260510063634 48 16 2.0 7.0 0.00 0.00 0.00 87 1015.7
20260510062633 45 18 2.0 5.0 0.00 0.00 0.00 82 1015.8
20260510062133 45 18 3.0 5.0 0.00 0.00 0.00 84 1015.7
20260510061634 44 17 3.0 5.0 0.00 0.00 0.00 85 1015.8
20260510061133 44 18 2.0 3.0 0.00 0.00 0.00 84 1015.8
20260510060134 44 18 0.0 2.0 0.00 0.00 0.00 88 1015.8
20260510055633 43 18 2.0 3.0 0.00 0.00 0.00 88 1015.8
20260510055133 43 17 2.0 3.0 0.00 0.00 0.00 88 1015.9
20260510054634 44 17 0.0 3.0 0.00 0.00 0.00 88 1016.0
20260510054134 44 17 0.0 0.0 0.00 0.00 0.00 87 1016.0
20260510053633 43 17 0.0 0.0 0.00 0.00 0.00 87 1016.1
20260510053133 43 17 0.0 0.0 0.00 0.00 0.00 87 1016.1
20260510052133 42 17 0.0 0.0 0.00 0.00 0.00 86 1015.9
20260510051634 42 17 0.0 0.0 0.00 0.00 0.00 84 1015.9
20260510050134 42 17 0.0 0.0 0.00 0.00 0.00 82 1015.9
20260510045633 42 16 0.0 0.0 0.00 0.00 0.00 81 1015.9
20260510044633 42 17 0.0 0.0 0.00 0.00 0.00 81 1015.9
20260510044133 42 17 0.0 0.0 0.00 0.00 0.00 81 1016.0
20260510043634 42 18 0.0 2.0 0.00 0.00 0.00 81 1016.1
20260510043134 42 17 2.0 5.0 0.00 0.00 0.00 81 1016.2
20260510042634 42 15 3.0 5.0 0.00 0.00 0.00 81 1016.2
20260510042134 42 15 1.0 3.0 0.00 0.00 0.00 81 1016.2
20260510041633 42 13 4.0 6.0 0.00 0.00 0.00 82 1016.4
20260510041133 42 18 2.0 5.0 0.00 0.00 0.00 82 1016.4
20260510040633 42 17 2.0 3.0 0.00 0.00 0.00 83 1016.5
20260510040133 42 16 2.0 5.0 0.00 0.00 0.00 84 1016.5
20260510035634 42 18 1.0 5.0 0.00 0.00 0.00 85 1016.5
20260510035133 42 18 2.0 5.0 0.00 0.00 0.00 87 1016.5
20260510034633 42 18 0.0 0.0 0.00 0.00 0.00 86 1016.4
20260510034133 42 16 0.0 0.0 0.00 0.00 0.00 86 1016.4
20260510033633 42 18 0.0 0.0 0.00 0.00 0.00 87 1016.5
20260510033133 42 18 0.0 0.0 0.00 0.00 0.00 87 1016.5
20260510032633 42 18 0.0 0.0 0.00 0.00 0.00 88 1016.6
20260510032133 42 18 0.0 0.0 0.00 0.00 0.00 88 1016.8
20260510031633 42 18 0.0 0.0 0.00 0.00 0.00 88 1016.8
20260510031133 42 18 0.0 0.0 0.00 0.00 0.00 87 1016.8
20260510030633 42 18 0.0 0.0 0.00 0.00 0.00 87 1016.8
20260510030133 41 19 0.0 0.0 0.00 0.00 0.00 87 1016.9
20260510025633 41 18 0.0 1.0 0.00 0.00 0.00 86 1017.0
20260510024633 41 16 2.0 3.0 0.00 0.00 0.00 85 1017.0
20260510024133 41 18 0.0 0.0 0.00 0.00 0.00 85 1017.1
20260510023633 41 18 0.0 0.0 0.00 0.00 0.00 84 1017.1
20260510023134 41 17 0.0 0.0 0.00 0.00 0.00 85 1017.2
20260510022134 42 18 0.0 0.0 0.00 0.00 0.00 83 1017.3
20260510021633 42 17 0.0 1.0 0.00 0.00 0.00 83 1017.3
20260510021133 42 17 0.0 0.0 0.00 0.00 0.00 83 1017.2
20260510020633 42 17 0.0 1.0 0.00 0.00 0.00 82 1017.2
20260510020133 42 19 2.0 3.0 0.00 0.00 0.00 81 1017.3
20260510015633 42 19 2.0 5.0 0.00 0.00 0.00 81 1017.3
20260510015133 42 15 3.0 5.0 0.00 0.00 0.00 81 1017.4
20260510014633 42 19 2.0 3.0 0.00 0.00 0.00 81 1017.5
20260510014133 42 17 3.0 5.0 0.00 0.00 0.00 81 1017.6
20260510013633 42 18 3.0 5.0 0.00 0.00 0.00 81 1017.6
20260510013133 42 19 2.0 5.0 0.00 0.00 0.00 81 1017.6
20260510012633 42 19 3.0 6.0 0.00 0.00 0.00 81 1017.6
20260510012134 43 13 2.0 3.0 0.00 0.00 0.00 81 1017.5
20260510011633 43 17 1.0 2.0 0.00 0.00 0.00 81 1017.5
20260510011134 43 18 1.0 3.0 0.00 0.00 0.00 81 1017.6
20260510010633 43 18 2.0 3.0 0.00 0.00 0.00 81 1017.6
20260510010134 43 18 2.0 3.0 0.00 0.00 0.00 81 1017.7
20260510005633 43 18 2.0 3.0 0.00 0.00 0.00 82 1017.7
20260510005133 43 19 3.0 5.0 0.00 0.00 0.00 82 1017.7
20260510004634 43 18 1.0 3.0 0.00 0.00 0.00 82 1017.7
20260510004133 43 19 1.0 2.0 0.00 0.00 0.00 82 1017.8
20260510003633 43 19 1.0 3.0 0.00 0.00 0.00 82 1017.9
20260510003133 43 19 2.0 3.0 0.00 0.00 0.00 82 1017.8
20260510002633 44 19 1.0 3.0 0.00 0.00 0.00 82 1017.8
20260510002133 44 18 2.0 3.0 0.00 0.00 0.00 83 1017.8
20260510001633 44 19 1.0 6.0 0.00 0.00 0.00 84 1017.9
20260510001133 44 19 0.0 1.0 0.00 0.00 0.00 84 1017.9
20260510000633 44 19 0.0 1.0 0.00 0.00 0.00 84 1017.9
20260509235632 44 19 1.0 3.0 0.00 0.00 0.00 85 1017.9
20260509234633 43 19 2.0 3.0 0.00 0.00 0.00 87 1018.0
20260509234133 43 19 1.0 2.0 0.00 0.00 0.00 86 1018.0
20260509233633 43 19 1.0 2.0 0.00 0.00 0.00 88 1018.1
20260509233133 43 19 2.0 3.0 0.00 0.00 0.00 87 1018.1
20260509231633 42 19 0.0 0.0 0.00 0.00 0.00 87 1018.2
20260509231133 42 19 0.0 0.0 0.00 0.00 0.00 88 1018.2
20260509230633 43 19 0.0 0.0 0.00 0.00 0.00 88 1018.3
20260509230133 43 18 0.0 0.0 0.00 0.00 0.00 88 1018.3
20260509224633 44 19 0.0 3.0 0.00 0.00 0.00 88 1018.3
20260509223633 43 19 0.0 0.0 0.00 0.00 0.00 88 1018.3
20260509223133 43 19 0.0 1.0 0.00 0.00 0.00 88 1018.3
20260509222633 43 18 0.0 1.0 0.00 0.00 0.00 88 1018.4
20260509222133 43 19 1.0 3.0 0.00 0.00 0.00 88 1018.5
20260509221633 43 19 0.0 1.0 0.00 0.00 0.00 88 1018.4
20260509221133 43 18 0.0 1.0 0.00 0.00 0.00 88 1018.4
20260509220633 43 18 1.0 2.0 0.00 0.00 0.00 88 1018.4
20260509220133 43 18 0.0 0.0 0.00 0.00 0.00 88 1018.4
20260509215132 43 18 0.0 2.0 0.00 0.00 0.00 88 1018.4
20260509214133 44 18 0.0 2.0 0.00 0.00 0.00 87 1018.4
20260509212632 44 19 0.0 1.0 0.00 0.00 0.00 88 1018.3
20260509212133 44 19 0.0 1.0 0.00 0.00 0.00 88 1018.3
20260509210133 44 19 2.0 3.0 0.00 0.00 0.00 88 1018.4
20260509205632 44 19 2.0 3.0 0.00 0.00 0.00 88 1018.3
20260509204633 44 19 2.0 3.0 0.00 0.00 0.00 87 1018.4
20260509203133 44 19 0.0 1.0 0.00 0.00 0.00 86 1018.4
20260509202633 44 19 0.0 2.0 0.00 0.00 0.00 86 1018.5
20260509202133 45 20 1.0 3.0 0.00 0.00 0.00 86 1018.5
20260509201633 45 0 2.0 3.0 0.00 0.00 0.00 86 1018.4
20260509201133 45 0 3.0 6.0 0.00 0.00 0.00 86 1018.4
20260509200633 44 7 1.0 6.0 0.00 0.00 0.00 86 1018.5
20260509200133 44 0 0.0 2.0 0.00 0.00 0.00 86 1018.5
20260509195632 45 0 1.0 3.0 0.00 0.00 0.00 86 1018.4
20260509195133 45 0 2.0 2.0 0.00 0.00 0.00 86 1018.4
20260509194133 45 0 1.0 6.0 0.00 0.00 0.00 86 1018.3
20260509193632 45 0 5.0 7.0 0.00 0.00 0.00 86 1018.1
20260509193133 44 0 5.0 8.0 0.00 0.00 0.00 87 1018.0
20260509192632 44 0 3.0 5.0 0.00 0.00 0.00 87 1018.1
20260509191633 44 0 2.0 3.0 0.00 0.00 0.00 87 1018.1
20260509191133 44 3 1.0 3.0 0.00 0.00 0.00 88 1018.1
20260509190632 44 0 1.0 2.0 0.00 0.00 0.00 88 1018.1
20260509190133 44 2 0.0 3.0 0.00 0.00 0.00 88 1018.0
20260509185633 44 2 2.0 3.0 0.00 0.00 0.00 88 1017.9
20260509184633 45 10 1.0 3.0 0.00 0.00 0.00 88 1018.0
20260509183632 45 7 1.0 5.0 0.00 0.00 0.00 88 1018.0
20260509183133 45 9 2.0 5.0 0.00 0.00 0.00 87 1017.9
20260509182132 45 15 1.0 3.0 0.00 0.00 0.00 87 1017.9
20260509181632 45 13 2.0 5.0 0.00 0.00 0.00 87 1017.8
20260509181133 46 15 2.0 5.0 0.00 0.00 0.00 87 1017.9
20260509180632 46 20 2.0 3.0 0.00 0.00 0.00 87 1017.9
20260509180133 46 19 1.0 2.0 0.00 0.00 0.00 87 1018.0
20260509175133 46 17 5.0 7.0 0.00 0.00 0.00 87 1018.0
20260509174632 46 19 3.0 6.0 0.00 0.00 0.00 88 1018.1
20260509173632 46 18 5.0 8.0 0.00 0.00 0.00 88 1018.0
20260509173132 46 18 4.0 7.0 0.00 0.00 0.00 88 1018.0
20260509172633 46 17 5.0 8.0 0.00 0.00 0.00 88 1018.0
20260509172133 46 17 5.0 9.0 0.00 0.00 0.00 88 1017.9
20260509171632 46 17 5.0 8.0 0.00 0.00 0.00 88 1018.0
20260509171132 46 19 6.0 8.0 0.00 0.00 0.00 88 1017.9
20260509170133 46 18 5.0 9.0 0.00 0.00 0.00 88 1017.9
20260509165133 46 15 5.0 7.0 0.00 0.00 0.00 87 1017.8
20260509164632 46 16 3.0 7.0 0.00 0.00 0.00 88 1017.8
20260509164132 46 17 2.0 7.0 0.00 0.00 0.00 88 1017.8
20260509163633 46 18 4.0 8.0 0.00 0.00 0.00 87 1017.7
20260509163133 46 18 5.0 6.0 0.00 0.00 0.00 87 1017.8
20260509162632 47 18 3.0 7.0 0.00 0.00 0.00 87 1017.8
20260509162132 47 15 4.0 6.0 0.00 0.00 0.00 87 1017.9
20260509161632 47 15 5.0 9.0 0.00 0.00 0.00 87 1018.0
20260509161133 47 16 3.0 5.0 0.00 0.00 0.00 87 1018.0
20260509160632 47 16 5.0 8.0 0.00 0.00 0.00 88 1018.0
20260509160132 46 17 3.0 6.0 0.00 0.00 0.00 87 1018.0
20260509155632 47 15 5.0 8.0 0.00 0.00 0.00 87 1018.0
20260509154632 47 16 4.0 8.0 0.00 0.00 0.00 87 1018.0
20260509154133 47 16 5.0 7.0 0.00 0.00 0.00 87 1018.0
20260509153632 47 14 4.0 8.0 0.00 0.00 0.00 87 1018.0
20260509153132 48 18 5.0 7.0 0.00 0.00 0.00 87 1018.1
20260509152633 47 15 3.0 7.0 0.00 0.00 0.00 87 1018.1
20260509152132 47 13 4.0 8.0 0.00 0.00 0.00 87 1018.2
20260509151633 47 16 5.0 12.0 0.00 0.00 0.00 87 1018.2
20260509151132 48 15 5.0 10.0 0.00 0.00 0.00 85 1018.2
20260509150632 48 15 3.0 8.0 0.00 0.00 0.00 87 1018.2
20260509150133 47 16 5.0 8.0 0.00 0.00 0.00 87 1018.2
20260509145632 47 17 3.0 10.0 0.00 0.00 0.00 85 1018.0
20260509145132 48 17 3.0 6.0 0.00 0.00 0.00 87 1018.1
20260509144633 48 14 3.0 7.0 0.00 0.00 0.00 86 1018.1
20260509144133 48 14 5.0 8.0 0.00 0.00 0.00 86 1018.1
20260509143632 48 16 5.0 8.0 0.00 0.00 0.00 85 1018.1
20260509142633 48 15 5.0 10.0 0.00 0.00 0.00 86 1018.0
20260509142132 48 14 5.0 9.0 0.00 0.00 0.00 86 1018.1
20260509141633 48 16 6.0 12.0 0.00 0.00 0.00 85 1018.1
20260509140632 48 14 6.0 10.0 0.00 0.00 0.00 83 1018.4
20260509140133 48 16 4.0 9.0 0.00 0.00 0.00 83 1018.4
20260509135632 48 14 5.0 8.0 0.00 0.00 0.00 82 1018.3
20260509135132 48 13 2.0 6.0 0.00 0.00 0.00 84 1018.4
20260509134632 48 16 3.0 8.0 0.00 0.00 0.00 83 1018.4
20260509133632 49 14 3.0 10.0 0.00 0.00 0.00 83 1018.4
20260509133133 49 13 4.0 12.0 0.00 0.00 0.00 85 1018.3
20260509132632 49 16 5.0 9.0 0.00 0.00 0.00 86 1018.3
20260509132132 48 15 4.0 12.0 0.00 0.00 0.00 84 1018.3
20260509131632 49 15 4.0 12.0 0.00 0.00 0.00 85 1018.3
20260509131132 48 15 3.0 10.0 0.00 0.00 0.00 85 1018.1
20260509130632 49 17 5.0 12.0 0.00 0.00 0.00 84 1018.2
20260509130132 49 14 6.0 14.0 0.00 0.00 0.00 85 1018.2
20260509125632 49 15 6.0 10.0 0.00 0.00 0.00 84 1018.2
20260509125134 49 16 5.0 9.0 0.00 0.00 0.00 83 1018.2
20260509124633 48 15 5.0 9.0 0.00 0.00 0.00 84 1018.3
20260509124133 48 16 5.0 9.0 0.00 0.00 0.00 85 1018.3
20260509123132 48 17 3.0 14.0 0.00 0.00 0.00 87 1018.3
20260509122632 48 18 5.0 9.0 0.00 0.00 0.00 86 1018.2
20260509122133 49 17 5.0 10.0 0.00 0.00 0.00 85 1018.2
20260509121632 48 15 5.0 9.0 0.00 0.00 0.00 87 1018.2
20260509121132 48 16 4.0 8.0 0.00 0.00 0.00 86 1018.3
20260509120633 47 15 5.0 8.0 0.00 0.00 0.00 88 1018.3
20260509120133 47 15 4.0 9.0 0.00 0.00 0.00 88 1018.3
20260509115632 47 14 6.0 9.0 0.00 0.00 0.00 88 1018.3
20260509114632 48 14 5.0 9.0 0.00 0.00 0.00 87 1018.4
20260509114132 48 15 4.0 8.0 0.00 0.00 0.00 87 1018.5
20260509113632 48 16 2.0 7.0 0.00 0.00 0.00 88 1018.5
20260509113132 49 15 3.0 7.0 0.00 0.00 0.00 87 1018.6
20260509112632 49 15 4.0 7.0 0.00 0.00 0.00 87 1018.7
20260509112132 50 14 5.0 9.0 0.00 0.00 0.00 86 1018.7
20260509111632 49 14 3.0 7.0 0.00 0.00 0.00 87 1018.8
20260509111132 50 16 5.0 8.0 0.00 0.00 0.00 88 1018.9
20260509110632 50 16 5.0 9.0 0.00 0.00 0.00 86 1019.0
20260509110132 49 15 5.0 8.0 0.00 0.00 0.00 88 1019.1
20260509105632 48 17 4.0 10.0 0.00 0.00 0.00 87 1019.0
20260509105132 47 17 3.0 6.0 0.00 0.00 0.00 88 1019.1
20260509104132 46 15 5.0 7.0 0.00 0.00 0.00 88 1019.1
20260509103632 47 15 4.0 6.0 0.00 0.00 0.00 88 1019.2
20260509103132 48 14 2.0 6.0 0.00 0.00 0.00 87 1019.2
20260509102631 47 14 4.0 7.0 0.00 0.00 0.00 86 1019.2
20260509102132 47 14 6.0 9.0 0.00 0.00 0.00 88 1019.1
20260509101632 48 14 3.0 8.0 0.00 0.00 0.00 88 1019.2
20260509101132 48 15 5.0 7.0 0.00 0.00 0.00 88 1019.2
20260509100132 46 14 1.0 3.0 0.00 0.00 0.00 88 1019.1
20260509095631 46 16 2.0 5.0 0.00 0.00 0.00 88 1019.1
20260509095132 47 16 4.0 7.0 0.00 0.00 0.00 88 1019.0
20260509094632 49 17 2.0 3.0 0.00 0.00 0.00 87 1019.0
20260509094132 49 15 2.0 3.0 0.00 0.00 0.00 87 1019.0
20260509093632 49 18 1.0 3.0 0.00 0.00 0.00 88 1019.0
20260509093135 49 16 2.0 7.0 0.00 0.00 0.00 88 1019.0
20260509092632 48 15 5.0 9.0 0.00 0.00 0.00 88 1019.0
20260509090132 48 15 1.0 2.0 0.00 0.00 0.00 88 1019.1
20260509085632 48 15 3.0 6.0 0.00 0.00 0.00 88 1019.0
20260509085132 48 17 2.0 3.0 0.00 0.00 0.00 88 1019.1
20260509084632 47 18 3.0 6.0 0.00 0.00 0.00 86 1019.0
20260509084132 46 0 5.0 6.0 0.00 0.00 0.00 87 1019.0
20260509083631 46 1 5.0 7.0 0.00 0.00 0.00 84 1019.0
20260509083132 47 19 1.0 3.0 0.00 0.00 0.00 85 1018.9
20260509082632 47 17 5.0 9.0 0.00 0.00 0.00 82 1018.9
20260509082131 48 19 4.0 6.0 0.00 0.00 0.00 83 1018.9
20260509081631 47 17 1.0 3.0 0.00 0.00 0.00 87 1018.9
20260509081132 46 16 3.0 6.0 0.00 0.00 0.00 86 1018.9
20260509080632 47 16 3.0 9.0 0.00 0.00 0.00 87 1018.8
20260509080132 47 17 6.0 8.0 0.00 0.00 0.00 87 1018.8
20260509075132 51 18 3.0 5.0 0.00 0.00 0.00 77 1018.9
20260509074632 52 21 3.0 5.0 0.00 0.00 0.00 76 1018.8